Flag for Germany Weather past 2 weeks in Bietigheim-Bissingen, Baden-Württemberg, Germany

Now
39 °F

Overcast.


Feels Like: 35 °F
Forecast: 35 / 39 °F
Wind: 6 mph from West

Location: Stuttgart-Echterdingen

Current Time: Dec 25, 2014 at 7:42:44 PM

Latest Report: Dec 25, 2014 at 7:00 PM


Visibility: 34 mi

Pressure: 30.38 "Hg

Humidity: 71%

Dew point: 31 °F

Location of Bietigheim-BissingenLocation

Historic Weather in Bietigheim-Bissingen — Graph

°F

Bietigheim-Bissingen temperature yesterday

Maximum temperature yesterday: 49 °F (at 2:00 PM)
Minimum temperature yesterday: 29 °F (at 4:00 AM)
Average temperature yesterday: 39 °F

Past Weeks' High & Low Weather Summary

 TemperatureHumidityPressure
High54 °F (Dec 23, 1:00 PM)98% (Dec 16, 6:00 AM)30.56 "Hg (Dec 16, 6:00 AM)
Low29 °F (Dec 24, 4:00 AM)38% (Dec 23, 3:00 PM)29.76 "Hg (Dec 12, 7:00 PM)
Average44 °F79%30.13 "Hg
* Reported Dec 10 7:00 PM — Dec 25 7:00 PM, Bietigheim-Bissingen, Weather by CustomWeather, © 2014

Note: Actual official high and low records may vary slightly from our data, if they occured in-between our weather recording intervals... More about our weather records

Advertising

Bietigheim-Bissingen weather history for previous 24 hours

 ConditionsComfort  
Time TempWeatherWind HumidityBarometerVisibility
7:00 PM
Dec 25
39 °FOvercast.6 mph71%30.38 "Hg34 mi
6:00 PM39 °FOvercast.6 mph71%30.36 "Hg34 mi
5:00 PM40 °FOvercast.6 mph70%30.35 "Hg34 mi
3:00 PM40 °FOvercast.6 mph68%30.34 "Hg34 mi
2:00 PM41 °FPartly sunny.7 mph68%30.33 "Hg37 mi
1:00 PM40 °FOvercast.8 mph69%30.34 "Hg37 mi
12:00 PM40 °FOvercast.7 mph71%30.34 "Hg37 mi
11:00 AM40 °FOvercast.6 mph76%30.35 "Hg37 mi
9:00 AM39 °FOvercast.3 mph81%30.32 "Hg37 mi
8:00 AM38 °FOvercast.5 mph82%30.31 "Hg37 mi
7:00 AM39 °FOvercast.6 mph80%30.29 "Hg12 mi
6:00 AM43 °FRain. Overcast.9 mph88%30.24 "Hg7 mi
5:00 AM44 °FLight rain. Overcast.5 mph90%30.22 "Hg7 mi
3:00 AM44 °FLight rain. Overcast.5 mph90%30.22 "Hg9 mi
2:00 AM45 °FLight rain. Overcast.7 mph83%30.21 "Hg22 mi
1:00 AM45 °FOvercast.5 mph81%30.21 "Hg22 mi
12:00 AM45 °FOvercast.7 mph78%30.21 "Hg22 mi
11:00 PM
Dec 24
46 °FOvercast.7 mph75%30.20 "Hg28 mi
9:00 PM46 °FOvercast.5 mph70%30.20 "Hg43 mi
8:00 PM46 °FPassing clouds.6 mph68%30.19 "Hg43 mi
7:00 PM46 °FPassing clouds.6 mph64%30.19 "Hg43 mi
Weather by CustomWeather, © 2014

See weather overviewHow to use our weather pages